Regional Weather Roundup
Issued by NWS Green Bay, WI

Home | Current Version | Previous Version | Graphics & Text | Print | Product List | Glossary Off
Versions: 1 2 3 4 5 6 7 8 9 10 11 12 13 14 15 16 17 18 19 20 21 22 23 24 25 26 27 28 29 30 31 32 33 34 35 36 37 38 39 40 41 42 43 44 45 46 47 48 49 50

000
ASUS43 KGRB 291400
RWRGRB

NORTH-CENTRAL AND NORTHEAST WISCONSIN REGIONAL WEATHER ROUNDUP
NATIONAL WEATHER SERVICE GREEN BAY WI
900 AM CDT FRI MAY 29 2015

WIZ005-009-010>012-018-019-291500-
NORTH CENTRAL WISCONSIN

CITY           SKY/WX    TMP DP  RH WIND       PRES   REMARKS
IRONWOOD       CLOUDY    63  57  82 S7        29.85F
MANITOWISH WTR NOT AVBL
ARBOR VITAE    NOT AVBL
EAGLE RIVER    NOT AVBL
LAND O LAKES   NOT AVBL
RHINELANDER    CLOUDY    66  58  75 SW10G17   29.95S
PHILLIPS       NOT AVBL
ANTIGO         NOT AVBL
TOMAHAWK       NOT AVBL
MERRILL        NOT AVBL
$$

WIZ013-073-291500-
NORTHEAST WISCONSIN

CITY           SKY/WX    TMP DP  RH WIND       PRES   REMARKS
IRON MOUNTAIN  LGT RAIN  62  58  86 SE7       29.94F
MARINETTE      CLOUDY    64  55  72 S9        29.97S
$$

WIZ017-030-035>037-045-291500-
CENTRAL WISCONSIN

CITY           SKY/WX    TMP DP  RH WIND       PRES   REMARKS
MEDFORD        NOT AVBL
WAUSAU         PTSUNNY   69  61  75 S10       29.94F
MOSINEE        MOSUNNY   66  63  88 S12G17    29.97S
MARSHFIELD     CLOUDY    67  61  81 S10       29.95R
WISC RAPIDS    MOSUNNY   68  62  81 S8        29.98R
STEVENS POINT  NOT AVBL
WAUPACA        NOT AVBL
SHAWANO        NOT AVBL
CLINTONVILLE   NOT AVBL
$$

WIZ038-039-048-051-291500-
FOX VALLEY

CITY           SKY/WX    TMP DP  RH WIND       PRES   REMARKS
NWS GREEN BAY  LGT RAIN  67  61  81 S7        29.98S
APPLETON       DRIZZLE   64  63  94 SE9       29.99S
OSHKOSH        LGT RAIN  65  60  84 S12       29.98F
FOND DU LAC    CLOUDY    65  62  90 SE8       30.00F
$$

WIZ022-050-052-291500-
EAST CENTRAL WISCONSIN

CITY           SKY/WX    TMP DP  RH WIND       PRES   REMARKS
STURGEON BAY   CLOUDY    59  55  88 SE5       30.01F
MANITOWOC      NOT AVBL
SHEBOYGAN      TSTM      65  59  81 S10       30.02R
$$

LMZ563-521-522-541>543-291500-
LAKESHORE

STATION/POSITION TIME  TEMP    WIND        PRES    VSBY  WAVE
                       AIR SEA DIR/SP/G                  HT/PER
                 (UTC) (F)     (DEG/KT/KT) (MB)    (MI)  (FT/S)
SHEBOYGAN LKSHOR 1300   51     170/  9/ 10 1016.4F
KEWAUNEE LKSHORE 1300   50     170/  8/ 10 1015.2F
ALGOMA MARINA    1323          190/  3/  4   N/A
NORTHPORT PIER   1300   61     170/ 10/ 15 1015.2S
N MID LAKE BUOY  1250   42 37  200/  4/  4 1016.2F         1
SISTER BAY LKSHO 1318   60     190/ 16/ 19   N/A
CHAMBERS ISLAND  1300   62     160/  5/ 10 1015.6R
MENOMINEE LKSHOR 1300   63     170/  8/ 10 1015.6F
$$


USA.gov is the U.S. government's official web portal to all federal, state and local government web resources and services.